Regional Weather Roundup
Issued by NWS Little Rock, AR

Home | Current Version | Previous Version | Graphics & Text | Print | Product List | Glossary On
Versions: 1 2 3 4 5 6 7 8 9 10 11 12 13 14 15 16 17 18 19 20 21 22 23 24 25 26 27 28 29 30 31 32 33
000
ASUS44 KLZK 251405
RWRLZK

WEATHER ROUNDUP FOR ARKANSAS
NATIONAL WEATHER SERVICE LITTLE ROCK AR
900 AM CDT MON SEP 25 2017

NOTE: "FAIR" INDICATES FEW OR NO CLOUDS BELOW 12,000 FEET WITH NO
SIGNIFICANT WEATHER AND/OR OBSTRUCTIONS TO VISIBILITY.

ARZ001-003-010-029-251500-
NORTHWEST ARKANSAS

CITY           SKY/WX    TMP DP  RH WIND       PRES   REMARKS
FAYETTEVILLE   SUNNY     67  66  97 CALM      30.01R
FORT SMITH     SUNNY     73  68  84 E5        29.97R
HARRISON       SUNNY     70  66  87 SE6       30.03S
BENTONVILLE    SUNNY     73  65  75 SE6       30.03R
ROGERS         SUNNY     72  66  81 SE6       30.02R
SILOAM SPGS    SUNNY     72  65  78 SE6       30.01
SPRINGDALE     SUNNY     72  64  78 SE6       30.03R
$$

ARZ004-005-016-251500-
NORTH CENTRAL ARKANSAS

CITY           SKY/WX    TMP DP  RH WIND       PRES   REMARKS
BATESVILLE     SUNNY     72  68  87 CALM      30.02R
FLIPPIN        SUNNY     70  66  87 CALM      30.02R
MTN HOME       SUNNY     73  68  84 SE5       30.01S
$$

ARZ040-041-251500-
WEST CENTRAL ARKANSAS

CITY           SKY/WX    TMP DP  RH WIND       PRES   REMARKS
MENA           SUNNY     70  70 100 CALM      30.00S
MOUNT IDA      FOG       68  67  96 CALM      29.97S VSB 1/2
$$

ARZ009-017-025-026-028-251500-
NORTHEAST ARKANSAS

CITY           SKY/WX    TMP DP  RH WIND       PRES   REMARKS
CORNING        FAIR      72  72 100 CALM      30.02R
JONESBORO      SUNNY     74  72  93 CALM      30.02R
NEWPORT        SUNNY     72  69  90 E3        30.02R
WALNUT RIDGE   SUNNY     72  68  88 CALM      30.02R
BLYTHEVILLE    SUNNY     76  71  85 E3        30.02S
NW BLYTHEVILLE SUNNY     77  68  73 SE3       30.02S
$$

ARZ022-023-033-042-044-251500-
CENTRAL ARKANSAS

CITY           SKY/WX    TMP DP  RH WIND       PRES   REMARKS
LITTLE ROCK    SUNNY     73  70  90 E3        29.99R
N LITTLE ROCK    N/A     76  68  77 SE3       29.99R
JACKSONVILLE   SUNNY     74  69  83 E3        29.99R
CONWAY           N/A     73  68  83 CALM      29.97S
SEARCY         SUNNY     75  70  84 E5        30.02R
HOT SPRINGS    SUNNY     73  70  90 S3        29.98S
RUSSELLVILLE   SUNNY     74  69  85 CALM      29.98R
CLINTON        FAIR      70  66  88 CALM      30.01S FOG
$$

ARZ036-251500-
EAST ARKANSAS

CITY           SKY/WX    TMP DP  RH WIND       PRES   REMARKS
WEST MEMPHIS   SUNNY     76  70  82 S3        30.00R
$$

ARZ050-053-066-070-073-251500-
SOUTHWEST ARKANSAS

CITY           SKY/WX    TMP DP  RH WIND       PRES   REMARKS
ARKADELPHIA    FAIR      72  69  90 VRB3      29.98R
CAMDEN         SUNNY     73  68  83 SE3       29.97R
TEXARKANA      SUNNY     74  70  87 CALM      29.96R
EL DORADO      SUNNY     74  69  85 SE5       29.97S
DE QUEEN       SUNNY     74  70  87 NE3       29.95R
$$

ARZ056-057-069-251500-
SOUTHEAST ARKANSAS

CITY           SKY/WX    TMP DP  RH WIND       PRES   REMARKS
PINE BLUFF     SUNNY     75  69  81 E5        29.99S
STUTTGART      SUNNY     76  70  82 SE3       30.00R
MONTICELLO     SUNNY     74  68  81 CALM      29.99R

$$






USA.gov is the U.S. government's official web portal to all federal, state and local government web resources and services.